Year,Month,Day,Hour,Minute,Value (Times are PST for temperature in C)
2015,04,09,00,00,9.80
2015,04,09,00,01,9.80
2015,04,09,00,02,9.70
2015,04,09,00,03,9.70
2015,04,09,00,04,9.70
2015,04,09,00,05,9.70
2015,04,09,00,06,9.70
2015,04,09,00,07,9.60
2015,04,09,00,08,9.60
2015,04,09,00,09,9.60
2015,04,09,00,10,9.60
2015,04,09,00,11,9.60
2015,04,09,00,12,9.60
2015,04,09,00,13,9.50
2015,04,09,00,14,9.50
2015,04,09,00,15,9.50
2015,04,09,00,16,9.50
2015,04,09,00,17,9.50
2015,04,09,00,18,9.50
2015,04,09,00,19,9.50
2015,04,09,00,20,9.50
2015,04,09,00,21,9.50
2015,04,09,00,22,9.50
2015,04,09,00,23,9.50
2015,04,09,00,24,9.50
2015,04,09,00,25,9.50
2015,04,09,00,26,9.50
2015,04,09,00,27,9.50
2015,04,09,00,28,9.50
2015,04,09,00,29,9.50
2015,04,09,00,30,9.40
2015,04,09,00,31,9.40
2015,04,09,00,32,9.40
2015,04,09,00,33,9.40
2015,04,09,00,34,9.40
2015,04,09,00,35,9.40
2015,04,09,00,36,9.40
2015,04,09,00,37,9.40
2015,04,09,00,38,9.40
2015,04,09,00,39,9.40
2015,04,09,00,40,9.40
2015,04,09,00,41,9.40
2015,04,09,00,42,9.40
2015,04,09,00,43,9.40
2015,04,09,00,44,9.40
2015,04,09,00,45,9.40
2015,04,09,00,46,9.40
2015,04,09,00,47,9.40
2015,04,09,00,48,9.40
2015,04,09,00,49,9.40
2015,04,09,00,50,9.40
2015,04,09,00,51,9.40
2015,04,09,00,52,9.40
2015,04,09,00,53,9.30
2015,04,09,00,54,9.30
2015,04,09,00,55,9.30
2015,04,09,00,56,9.30
2015,04,09,00,57,9.30
2015,04,09,00,58,9.30
2015,04,09,00,59,9.20
2015,04,09,01,00,9.20
2015,04,09,01,01,9.10
2015,04,09,01,02,9.00
2015,04,09,01,03,9.00
2015,04,09,01,04,8.90
2015,04,09,01,05,8.90
2015,04,09,01,06,8.90
2015,04,09,01,07,8.80
2015,04,09,01,08,8.80
2015,04,09,01,09,8.80
2015,04,09,01,10,8.80
2015,04,09,01,11,8.70
2015,04,09,01,12,8.70
2015,04,09,01,13,8.70
2015,04,09,01,14,8.70
2015,04,09,01,15,8.60
2015,04,09,01,16,8.60
2015,04,09,01,17,8.60
2015,04,09,01,18,8.60
2015,04,09,01,19,8.50
2015,04,09,01,20,8.50
2015,04,09,01,21,8.50
2015,04,09,01,22,8.40
2015,04,09,01,23,8.40
2015,04,09,01,24,8.40
2015,04,09,01,25,8.40
2015,04,09,01,26,8.40
2015,04,09,01,27,8.40
2015,04,09,01,28,8.40
2015,04,09,01,29,8.40
2015,04,09,01,30,8.40
2015,04,09,01,31,8.40
2015,04,09,01,32,8.40
2015,04,09,01,33,8.40
2015,04,09,01,34,8.40
2015,04,09,01,35,8.40
2015,04,09,01,36,8.40
2015,04,09,01,37,8.40
2015,04,09,01,38,8.40
2015,04,09,01,39,8.40
2015,04,09,01,40,8.40
2015,04,09,01,41,8.30
2015,04,09,01,42,8.30
2015,04,09,01,43,8.30
2015,04,09,01,44,8.30
2015,04,09,01,45,8.30
2015,04,09,01,46,8.30
2015,04,09,01,47,8.20
2015,04,09,01,48,8.20
2015,04,09,01,49,8.20
2015,04,09,01,50,8.10
2015,04,09,01,51,8.10
2015,04,09,01,52,8.10
2015,04,09,01,53,8.00
2015,04,09,01,54,8.00
2015,04,09,01,55,7.90
2015,04,09,01,56,7.90
2015,04,09,01,57,7.90
2015,04,09,01,58,7.80
2015,04,09,01,59,7.80
2015,04,09,02,00,7.80
2015,04,09,02,01,7.80
2015,04,09,02,02,7.80
2015,04,09,02,03,7.80
2015,04,09,02,04,7.80
2015,04,09,02,05,7.80
2015,04,09,02,06,7.80
2015,04,09,02,07,7.80
2015,04,09,02,08,7.80
2015,04,09,02,09,7.80
2015,04,09,02,10,7.90
2015,04,09,02,11,7.90
2015,04,09,02,12,7.90
2015,04,09,02,13,7.90
2015,04,09,02,14,8.00
2015,04,09,02,15,8.00
2015,04,09,02,16,8.00
2015,04,09,02,17,8.10
2015,04,09,02,18,8.10
2015,04,09,02,19,8.10
2015,04,09,02,20,8.20
2015,04,09,02,21,8.20
2015,04,09,02,22,8.20
2015,04,09,02,23,8.20
2015,04,09,02,24,8.10
2015,04,09,02,25,8.10
2015,04,09,02,26,8.00
2015,04,09,02,27,7.90
2015,04,09,02,28,7.90
2015,04,09,02,29,7.80
2015,04,09,02,30,7.80
2015,04,09,02,31,7.70
2015,04,09,02,32,7.60
2015,04,09,02,33,7.60
2015,04,09,02,34,7.50
2015,04,09,02,35,7.40
2015,04,09,02,36,7.30
2015,04,09,02,37,7.20
2015,04,09,02,38,7.20
2015,04,09,02,39,7.10
2015,04,09,02,40,7.00
2015,04,09,02,41,7.00
2015,04,09,02,42,6.90
2015,04,09,02,43,6.90
2015,04,09,02,44,6.90
2015,04,09,02,45,6.90
2015,04,09,02,46,6.90
2015,04,09,02,47,7.00
2015,04,09,02,48,7.00
2015,04,09,02,49,7.10
2015,04,09,02,50,7.20
2015,04,09,02,51,7.20
2015,04,09,02,52,7.20
2015,04,09,02,53,7.20
2015,04,09,02,54,7.30
2015,04,09,02,55,7.40
2015,04,09,02,56,7.40
2015,04,09,02,57,7.50
2015,04,09,02,58,7.60
2015,04,09,02,59,7.60
2015,04,09,03,00,7.70
2015,04,09,03,01,7.70
2015,04,09,03,02,7.70
2015,04,09,03,03,7.80
2015,04,09,03,04,7.80
2015,04,09,03,05,7.80
2015,04,09,03,06,7.80
2015,04,09,03,07,7.80
2015,04,09,03,08,7.80
2015,04,09,03,09,7.80
2015,04,09,03,10,7.80
2015,04,09,03,11,7.70
2015,04,09,03,12,7.70
2015,04,09,03,13,7.60
2015,04,09,03,14,7.60
2015,04,09,03,15,7.50
2015,04,09,03,16,7.50
2015,04,09,03,17,7.40
2015,04,09,03,18,7.40
2015,04,09,03,19,7.30
2015,04,09,03,20,7.30
2015,04,09,03,21,7.20
2015,04,09,03,22,7.20
2015,04,09,03,23,7.20
2015,04,09,03,24,7.20
2015,04,09,03,25,7.20
2015,04,09,03,26,7.20
2015,04,09,03,27,7.20
2015,04,09,03,28,7.10
2015,04,09,03,29,7.10
2015,04,09,03,30,7.10
2015,04,09,03,31,7.00
2015,04,09,03,32,6.90
2015,04,09,03,33,6.90
2015,04,09,03,34,6.80
2015,04,09,03,35,6.80
2015,04,09,03,36,6.70
2015,04,09,03,37,6.60
2015,04,09,03,38,6.50
2015,04,09,03,39,6.50
2015,04,09,03,40,6.40
2015,04,09,03,41,6.40
2015,04,09,03,42,6.30
2015,04,09,03,43,6.30
2015,04,09,03,44,6.30
2015,04,09,03,45,6.20
2015,04,09,03,46,6.20
2015,04,09,03,47,6.10
2015,04,09,03,48,6.00
2015,04,09,03,49,6.00
2015,04,09,03,50,5.90
2015,04,09,03,51,5.80
2015,04,09,03,52,5.80
2015,04,09,03,53,5.70
2015,04,09,03,54,5.70
2015,04,09,03,55,5.60
2015,04,09,03,56,5.60
2015,04,09,03,57,5.50
2015,04,09,03,58,5.50
2015,04,09,03,59,5.40
2015,04,09,04,00,5.40
2015,04,09,04,01,5.40
2015,04,09,04,02,5.40
2015,04,09,04,03,5.30
2015,04,09,04,04,5.30
2015,04,09,04,05,5.30
2015,04,09,04,06,5.20
2015,04,09,04,07,5.20
2015,04,09,04,08,5.20
2015,04,09,04,09,5.10
2015,04,09,04,10,5.10
2015,04,09,04,11,5.10
2015,04,09,04,12,5.10
2015,04,09,04,13,5.00
2015,04,09,04,14,5.00
2015,04,09,04,15,5.00
2015,04,09,04,16,5.00
2015,04,09,04,17,4.90
2015,04,09,04,18,4.90
2015,04,09,04,19,4.90
2015,04,09,04,20,4.90
2015,04,09,04,21,4.90
2015,04,09,04,22,4.90
2015,04,09,04,23,4.90
2015,04,09,04,24,4.90
2015,04,09,04,25,4.90
2015,04,09,04,26,4.90
2015,04,09,04,27,4.90
2015,04,09,04,28,4.90
2015,04,09,04,29,4.80
2015,04,09,04,30,4.80
2015,04,09,04,31,4.80
2015,04,09,04,32,4.80
2015,04,09,04,33,4.80
2015,04,09,04,34,4.80
2015,04,09,04,35,4.80
2015,04,09,04,36,4.80
2015,04,09,04,37,4.80
2015,04,09,04,38,4.80
2015,04,09,04,39,4.80
2015,04,09,04,40,4.80
2015,04,09,04,41,4.80
2015,04,09,04,42,4.80
2015,04,09,04,43,4.80
2015,04,09,04,44,4.70
2015,04,09,04,45,4.70
2015,04,09,04,46,4.70
2015,04,09,04,47,4.70
2015,04,09,04,48,4.60
2015,04,09,04,49,4.60
2015,04,09,04,50,4.60
2015,04,09,04,51,4.60
2015,04,09,04,52,4.70
2015,04,09,04,53,4.70
2015,04,09,04,54,4.70
2015,04,09,04,55,4.80
2015,04,09,04,56,4.90
2015,04,09,04,57,4.90
2015,04,09,04,58,5.10
2015,04,09,04,59,5.20
2015,04,09,05,00,5.30
2015,04,09,05,01,5.40
2015,04,09,05,02,5.60
2015,04,09,05,03,5.70
2015,04,09,05,04,5.80
2015,04,09,05,05,5.90
2015,04,09,05,06,6.00
2015,04,09,05,07,6.20
2015,04,09,05,08,6.30
2015,04,09,05,09,6.40
2015,04,09,05,10,6.50
2015,04,09,05,11,6.60
2015,04,09,05,12,6.70
2015,04,09,05,13,6.80
2015,04,09,05,14,6.80
2015,04,09,05,15,6.90
2015,04,09,05,16,6.90
2015,04,09,05,17,7.00
2015,04,09,05,18,7.00
2015,04,09,05,19,7.00
2015,04,09,05,20,7.10
2015,04,09,05,21,7.10
2015,04,09,05,22,7.10
2015,04,09,05,23,7.10
2015,04,09,05,24,7.10
2015,04,09,05,25,7.20
2015,04,09,05,26,7.20
2015,04,09,05,27,7.20
2015,04,09,05,28,7.20
2015,04,09,05,29,7.20
2015,04,09,05,30,7.10
2015,04,09,05,31,7.10
2015,04,09,05,32,7.00
2015,04,09,05,33,6.90
2015,04,09,05,34,6.90
2015,04,09,05,35,6.80
2015,04,09,05,36,6.80
2015,04,09,05,37,6.80
2015,04,09,05,38,6.70
2015,04,09,05,39,6.70
2015,04,09,05,40,6.60
2015,04,09,05,41,6.60
2015,04,09,05,42,6.50
2015,04,09,05,43,6.50
2015,04,09,05,44,6.40
2015,04,09,05,45,6.40
2015,04,09,05,46,6.30
2015,04,09,05,47,6.30
2015,04,09,05,48,6.20
2015,04,09,05,49,6.20
2015,04,09,05,50,6.10
2015,04,09,05,51,6.10
2015,04,09,05,52,6.00
2015,04,09,05,53,5.90
2015,04,09,05,54,5.90
2015,04,09,05,55,5.80
2015,04,09,05,56,5.80
2015,04,09,05,57,5.70
2015,04,09,05,58,5.60
2015,04,09,05,59,5.60
2015,04,09,06,00,5.50
2015,04,09,06,01,5.40
2015,04,09,06,02,5.40
2015,04,09,06,03,5.30
2015,04,09,06,04,5.30
2015,04,09,06,05,5.30
2015,04,09,06,06,5.30
2015,04,09,06,07,5.30
2015,04,09,06,08,5.40
2015,04,09,06,09,5.40
2015,04,09,06,10,5.40
2015,04,09,06,11,5.40
2015,04,09,06,12,5.40
2015,04,09,06,13,5.40
2015,04,09,06,14,5.50
2015,04,09,06,15,5.60
2015,04,09,06,16,5.60
2015,04,09,06,17,5.60
2015,04,09,06,18,5.60
2015,04,09,06,19,5.60
2015,04,09,06,20,5.60
2015,04,09,06,21,5.60
2015,04,09,06,22,5.60
2015,04,09,06,23,5.60
2015,04,09,06,24,5.60
2015,04,09,06,25,5.60
2015,04,09,06,26,5.50
2015,04,09,06,27,5.50
2015,04,09,06,28,5.40
2015,04,09,06,29,5.40
2015,04,09,06,30,5.30
2015,04,09,06,31,5.20
2015,04,09,06,32,5.20
2015,04,09,06,33,5.10
2015,04,09,06,34,5.10
2015,04,09,06,35,5.00
2015,04,09,06,36,4.90
2015,04,09,06,37,4.90
2015,04,09,06,38,4.90
2015,04,09,06,39,4.80
2015,04,09,06,40,4.80
2015,04,09,06,41,4.80
2015,04,09,06,42,4.70
2015,04,09,06,43,4.70
2015,04,09,06,44,4.60
2015,04,09,06,45,4.60
2015,04,09,06,46,4.50
2015,04,09,06,47,4.50
2015,04,09,06,48,4.40
2015,04,09,06,49,4.40
2015,04,09,06,50,4.30
2015,04,09,06,51,4.30
2015,04,09,06,52,4.30
2015,04,09,06,53,4.30
2015,04,09,06,54,4.20
2015,04,09,06,55,4.20
2015,04,09,06,56,4.20
2015,04,09,06,57,4.20
2015,04,09,06,58,4.20
2015,04,09,06,59,4.20
2015,04,09,07,00,4.20
2015,04,09,07,01,4.20
2015,04,09,07,02,4.10
2015,04,09,07,03,4.10
2015,04,09,07,04,4.10
2015,04,09,07,05,4.10
2015,04,09,07,06,4.10
2015,04,09,07,07,4.10
2015,04,09,07,08,4.20
2015,04,09,07,09,4.20
2015,04,09,07,10,4.20
2015,04,09,07,11,4.20
2015,04,09,07,12,4.20
2015,04,09,07,13,4.20
2015,04,09,07,14,4.20
2015,04,09,07,15,4.20
2015,04,09,07,16,4.20
2015,04,09,07,17,4.20
2015,04,09,07,18,4.20
2015,04,09,07,19,4.20
2015,04,09,07,20,4.30
2015,04,09,07,21,4.30
2015,04,09,07,22,4.30
2015,04,09,07,23,4.40
2015,04,09,07,24,4.40
2015,04,09,07,25,4.40
2015,04,09,07,26,4.40
2015,04,09,07,27,4.40
2015,04,09,07,28,4.40
2015,04,09,07,29,4.50
2015,04,09,07,30,4.50
2015,04,09,07,31,4.60
2015,04,09,07,32,4.70
2015,04,09,07,33,4.70
2015,04,09,07,34,4.80
2015,04,09,07,35,4.90
2015,04,09,07,36,5.00
2015,04,09,07,37,5.10
2015,04,09,07,38,5.10
2015,04,09,07,39,5.20
2015,04,09,07,40,5.30
2015,04,09,07,41,5.40
2015,04,09,07,42,5.50
2015,04,09,07,43,5.60
2015,04,09,07,44,5.70
2015,04,09,07,45,5.80
2015,04,09,07,46,5.80
2015,04,09,07,47,5.90
2015,04,09,07,48,6.00
2015,04,09,07,49,6.10
2015,04,09,07,50,6.20
2015,04,09,07,51,6.30
2015,04,09,07,52,6.40
2015,04,09,07,53,6.50
2015,04,09,07,54,6.60
2015,04,09,07,55,6.70
2015,04,09,07,56,6.80
2015,04,09,07,57,6.90
2015,04,09,07,58,7.00
2015,04,09,07,59,7.10
2015,04,09,08,00,7.20
2015,04,09,08,01,7.30
2015,04,09,08,02,7.50
2015,04,09,08,03,7.60
2015,04,09,08,04,7.70
2015,04,09,08,05,7.80
2015,04,09,08,06,7.90
2015,04,09,08,07,8.10
2015,04,09,08,08,8.20
2015,04,09,08,09,8.30
2015,04,09,08,10,8.40
2015,04,09,08,11,8.50
2015,04,09,08,12,8.50
2015,04,09,08,13,8.60
2015,04,09,08,14,8.70
2015,04,09,08,15,8.70
2015,04,09,08,16,8.80
2015,04,09,08,17,8.90
2015,04,09,08,18,8.90
2015,04,09,08,19,8.90
2015,04,09,08,20,8.90
2015,04,09,08,21,9.00
2015,04,09,08,22,9.00
2015,04,09,08,23,9.10
2015,04,09,08,24,9.10
2015,04,09,08,25,9.10
2015,04,09,08,26,9.10
2015,04,09,08,27,9.20
2015,04,09,08,28,9.20
2015,04,09,08,29,9.20
2015,04,09,08,30,9.20
2015,04,09,08,31,9.20
2015,04,09,08,32,9.20
2015,04,09,08,33,9.30
2015,04,09,08,34,9.30
2015,04,09,08,35,9.40
2015,04,09,08,36,9.40
2015,04,09,08,37,9.50
2015,04,09,08,38,9.60
2015,04,09,08,39,9.60
2015,04,09,08,40,9.60
2015,04,09,08,41,9.70
2015,04,09,08,42,9.70
2015,04,09,08,43,9.80
2015,04,09,08,44,9.90
2015,04,09,08,45,9.90
2015,04,09,08,46,9.90
2015,04,09,08,47,10.00
2015,04,09,08,48,10.10
2015,04,09,08,49,10.10
2015,04,09,08,50,10.20
2015,04,09,08,51,10.20
2015,04,09,08,52,10.20
2015,04,09,08,53,10.20
2015,04,09,08,54,10.20
2015,04,09,08,55,10.20
2015,04,09,08,56,10.20
2015,04,09,08,57,10.20
2015,04,09,08,58,10.20
2015,04,09,08,59,10.20
2015,04,09,09,00,10.30
2015,04,09,09,01,10.30
2015,04,09,09,02,10.40
2015,04,09,09,03,10.50
2015,04,09,09,04,10.50
2015,04,09,09,05,10.60
2015,04,09,09,06,10.70
2015,04,09,09,07,10.80
2015,04,09,09,08,10.90
2015,04,09,09,09,10.90
2015,04,09,09,10,10.90
2015,04,09,09,11,11.00
2015,04,09,09,12,11.00
2015,04,09,09,13,11.10
2015,04,09,09,14,11.10
2015,04,09,09,15,11.20
2015,04,09,09,16,11.30
2015,04,09,09,17,11.30
2015,04,09,09,18,11.40
2015,04,09,09,19,11.40
2015,04,09,09,20,11.40
2015,04,09,09,21,11.40
2015,04,09,09,22,11.40
2015,04,09,09,23,11.40
2015,04,09,09,24,11.40
2015,04,09,09,25,11.40
2015,04,09,09,26,11.40
2015,04,09,09,27,11.40
2015,04,09,09,28,11.50
2015,04,09,09,29,11.60
2015,04,09,09,30,11.60
2015,04,09,09,31,11.70
2015,04,09,09,32,11.70
2015,04,09,09,33,11.80
2015,04,09,09,34,11.80
2015,04,09,09,35,11.80
2015,04,09,09,36,11.90
2015,04,09,09,37,11.90
2015,04,09,09,38,11.80
2015,04,09,09,39,11.80
2015,04,09,09,40,11.80
2015,04,09,09,41,11.80
2015,04,09,09,42,11.80
2015,04,09,09,43,11.80
2015,04,09,09,44,11.80
2015,04,09,09,45,11.80
2015,04,09,09,46,11.80
2015,04,09,09,47,11.80
2015,04,09,09,48,11.70
2015,04,09,09,49,11.60
2015,04,09,09,50,11.50
2015,04,09,09,51,11.50
2015,04,09,09,52,11.40
2015,04,09,09,53,11.40
2015,04,09,09,54,11.40
2015,04,09,09,55,11.40
2015,04,09,09,56,11.40
2015,04,09,09,57,11.40
2015,04,09,09,58,11.50
2015,04,09,09,59,11.40
2015,04,09,10,00,11.40
2015,04,09,10,01,11.40
2015,04,09,10,02,11.40
2015,04,09,10,03,11.40
2015,04,09,10,04,11.40
2015,04,09,10,05,11.40
2015,04,09,10,06,11.40
2015,04,09,10,07,11.30
2015,04,09,10,08,11.30
2015,04,09,10,09,11.30
2015,04,09,10,10,11.40
2015,04,09,10,11,11.50
2015,04,09,10,12,11.60
2015,04,09,10,13,11.60
2015,04,09,10,14,11.70
2015,04,09,10,15,11.70
2015,04,09,10,16,11.70
2015,04,09,10,17,11.70
2015,04,09,10,18,11.70
2015,04,09,10,19,11.60
2015,04,09,10,20,11.60
2015,04,09,10,21,11.60
2015,04,09,10,22,11.70
2015,04,09,10,23,11.60
2015,04,09,10,24,11.60
2015,04,09,10,25,11.60
2015,04,09,10,26,11.60
2015,04,09,10,27,11.60
2015,04,09,10,28,11.60
2015,04,09,10,29,11.60
2015,04,09,10,30,11.50
2015,04,09,10,31,11.40
2015,04,09,10,32,11.50
2015,04,09,10,33,11.60
2015,04,09,10,34,11.70
2015,04,09,10,35,11.70
2015,04,09,10,36,11.80
2015,04,09,10,37,11.80
2015,04,09,10,38,11.70
2015,04,09,10,39,11.70
2015,04,09,10,40,11.70
2015,04,09,10,41,11.50
2015,04,09,10,42,11.40
2015,04,09,10,43,11.30
2015,04,09,10,44,11.20
2015,04,09,10,45,11.20
2015,04,09,10,46,11.30
2015,04,09,10,47,11.40
2015,04,09,10,48,11.50
2015,04,09,10,49,11.60
2015,04,09,10,50,11.60
2015,04,09,10,51,11.60
2015,04,09,10,52,11.70
2015,04,09,10,53,11.70
2015,04,09,10,54,11.80
2015,04,09,10,55,11.90
2015,04,09,10,56,12.00
2015,04,09,10,57,12.10
2015,04,09,10,58,12.10
2015,04,09,10,59,12.10
2015,04,09,11,00,12.10
2015,04,09,11,01,12.10
2015,04,09,11,02,12.20
2015,04,09,11,03,12.20
2015,04,09,11,04,12.20
2015,04,09,11,05,12.20
2015,04,09,11,06,12.20
2015,04,09,11,07,12.20
2015,04,09,11,08,12.30
2015,04,09,11,09,12.30
2015,04,09,11,10,12.30
2015,04,09,11,11,12.50
2015,04,09,11,12,12.50
2015,04,09,11,13,12.50
2015,04,09,11,14,12.30
2015,04,09,11,15,12.30
2015,04,09,11,16,12.20
2015,04,09,11,17,12.20
2015,04,09,11,18,12.20
2015,04,09,11,19,12.20
2015,04,09,11,20,12.20
2015,04,09,11,21,12.30
2015,04,09,11,22,12.30
2015,04,09,11,23,12.30
2015,04,09,11,24,12.20
2015,04,09,11,25,12.10
2015,04,09,11,26,12.00
2015,04,09,11,27,11.90
2015,04,09,11,28,11.90
2015,04,09,11,29,12.00
2015,04,09,11,30,12.10
2015,04,09,11,31,12.10
2015,04,09,11,32,12.20
2015,04,09,11,33,12.30
2015,04,09,11,34,12.30
2015,04,09,11,35,12.30
2015,04,09,11,36,12.30
2015,04,09,11,37,12.30
2015,04,09,11,38,12.40
2015,04,09,11,39,12.50
2015,04,09,11,40,12.60
2015,04,09,11,41,12.60
2015,04,09,11,42,12.60
2015,04,09,11,43,12.60
2015,04,09,11,44,12.50
2015,04,09,11,45,12.60
2015,04,09,11,46,12.60
2015,04,09,11,47,12.60
2015,04,09,11,48,12.60
2015,04,09,11,49,12.50
2015,04,09,11,50,12.50
2015,04,09,11,51,12.50
2015,04,09,11,52,12.60
2015,04,09,11,53,12.60
2015,04,09,11,54,12.60
2015,04,09,11,55,12.70
2015,04,09,11,56,12.70
2015,04,09,11,57,12.70
2015,04,09,11,58,12.70
2015,04,09,11,59,12.70
2015,04,09,12,00,12.70
2015,04,09,12,01,12.80
2015,04,09,12,02,12.80
2015,04,09,12,03,12.80
2015,04,09,12,04,12.80
2015,04,09,12,05,12.70
2015,04,09,12,06,12.70
2015,04,09,12,07,12.70
2015,04,09,12,08,12.70
2015,04,09,12,09,12.70
2015,04,09,12,10,12.70
2015,04,09,12,11,12.80
2015,04,09,12,12,12.70
2015,04,09,12,13,12.70
2015,04,09,12,14,12.70
2015,04,09,12,15,12.70
2015,04,09,12,16,12.70
2015,04,09,12,17,12.60
2015,04,09,12,18,12.50
2015,04,09,12,19,12.50
2015,04,09,12,20,12.50
2015,04,09,12,21,12.50
2015,04,09,12,22,12.40
2015,04,09,12,23,12.40
2015,04,09,12,24,12.40
2015,04,09,12,25,12.50
2015,04,09,12,26,12.40
2015,04,09,12,27,12.30
2015,04,09,12,28,12.20
2015,04,09,12,29,12.10
2015,04,09,12,30,12.10
2015,04,09,12,31,12.10
2015,04,09,12,32,12.00
2015,04,09,12,33,11.90
2015,04,09,12,34,12.00
2015,04,09,12,35,12.10
2015,04,09,12,36,12.20
2015,04,09,12,37,12.20
2015,04,09,12,38,12.20
2015,04,09,12,39,12.20
2015,04,09,12,40,12.30
2015,04,09,12,41,12.40
2015,04,09,12,42,12.40
2015,04,09,12,43,12.40
2015,04,09,12,44,12.40
2015,04,09,12,45,12.40
2015,04,09,12,46,12.50
2015,04,09,12,47,12.50
2015,04,09,12,48,12.60
2015,04,09,12,49,12.70
2015,04,09,12,50,12.80
2015,04,09,12,51,12.80
2015,04,09,12,52,12.90
2015,04,09,12,53,12.90
2015,04,09,12,54,12.90
2015,04,09,12,55,12.90
2015,04,09,12,56,12.90
2015,04,09,12,57,12.90
2015,04,09,12,58,13.00
2015,04,09,12,59,13.00
2015,04,09,13,00,12.90
2015,04,09,13,01,12.90
2015,04,09,13,02,12.80
2015,04,09,13,03,12.80
2015,04,09,13,04,12.80
2015,04,09,13,05,12.80
2015,04,09,13,06,12.90
2015,04,09,13,07,13.00
2015,04,09,13,08,13.00
2015,04,09,13,09,13.10
2015,04,09,13,10,13.20
2015,04,09,13,11,13.20
2015,04,09,13,12,13.20
2015,04,09,13,13,13.30
2015,04,09,13,14,13.30
2015,04,09,13,15,13.40
2015,04,09,13,16,13.40
2015,04,09,13,17,13.40
2015,04,09,13,18,13.30
2015,04,09,13,19,13.30
2015,04,09,13,20,13.30
2015,04,09,13,21,13.30
2015,04,09,13,22,13.30
2015,04,09,13,23,13.40
2015,04,09,13,24,13.50
2015,04,09,13,25,13.50
2015,04,09,13,26,13.60
2015,04,09,13,27,13.60
2015,04,09,13,28,13.60
2015,04,09,13,29,13.70
2015,04,09,13,30,13.80
2015,04,09,13,31,13.80
2015,04,09,13,32,13.70
2015,04,09,13,33,13.70
2015,04,09,13,34,13.70
2015,04,09,13,35,13.70
2015,04,09,13,36,13.70
2015,04,09,13,37,13.70
2015,04,09,13,38,13.80
2015,04,09,13,39,13.80
2015,04,09,13,40,13.80
2015,04,09,13,41,13.80
2015,04,09,13,42,13.80
2015,04,09,13,43,13.70
2015,04,09,13,44,13.70
2015,04,09,13,45,13.70
2015,04,09,13,46,13.70
2015,04,09,13,47,13.80
2015,04,09,13,48,13.80
2015,04,09,13,49,13.70
2015,04,09,13,50,13.60
2015,04,09,13,51,13.60
2015,04,09,13,52,13.60
2015,04,09,13,53,13.60
2015,04,09,13,54,13.60
2015,04,09,13,55,13.60
2015,04,09,13,56,13.60
2015,04,09,13,57,13.60
2015,04,09,13,58,13.60
2015,04,09,13,59,13.60
2015,04,09,14,00,13.60
2015,04,09,14,01,13.60
2015,04,09,14,02,13.70
2015,04,09,14,03,13.80
2015,04,09,14,04,13.90
2015,04,09,14,05,14.00
2015,04,09,14,06,14.00
2015,04,09,14,07,14.00
2015,04,09,14,08,13.90
2015,04,09,14,09,13.80
2015,04,09,14,10,13.60
2015,04,09,14,11,13.60
2015,04,09,14,12,13.60
2015,04,09,14,13,13.70
2015,04,09,14,14,13.70
2015,04,09,14,15,13.80
2015,04,09,14,16,13.80
2015,04,09,14,17,13.80
2015,04,09,14,18,13.80
2015,04,09,14,19,13.70
2015,04,09,14,20,13.60
2015,04,09,14,21,13.50
2015,04,09,14,22,13.40
2015,04,09,14,23,13.30
2015,04,09,14,24,13.40
2015,04,09,14,25,13.30
2015,04,09,14,26,13.30
2015,04,09,14,27,13.30
2015,04,09,14,28,13.40
2015,04,09,14,29,13.50
2015,04,09,14,30,13.60
2015,04,09,14,31,13.60
2015,04,09,14,32,13.60
2015,04,09,14,33,13.60
2015,04,09,14,34,13.70
2015,04,09,14,35,13.80
2015,04,09,14,36,13.90
2015,04,09,14,37,14.00
2015,04,09,14,38,14.10
2015,04,09,14,39,14.00
2015,04,09,14,40,14.10
2015,04,09,14,41,14.10
2015,04,09,14,42,14.10
2015,04,09,14,43,14.20
2015,04,09,14,44,14.20
2015,04,09,14,45,14.30
2015,04,09,14,46,14.40
2015,04,09,14,47,14.40
2015,04,09,14,48,14.50
2015,04,09,14,49,14.50
2015,04,09,14,50,14.50
2015,04,09,14,51,14.50
2015,04,09,14,52,14.50
2015,04,09,14,53,14.40
2015,04,09,14,54,14.30
2015,04,09,14,55,14.30
2015,04,09,14,56,14.30
2015,04,09,14,57,14.30
2015,04,09,14,58,14.30
2015,04,09,14,59,14.40
2015,04,09,15,00,14.40
2015,04,09,15,01,14.40
2015,04,09,15,02,14.40
2015,04,09,15,03,14.40
2015,04,09,15,04,14.40
2015,04,09,15,05,14.40
2015,04,09,15,06,14.40
2015,04,09,15,07,14.40
2015,04,09,15,08,14.30
2015,04,09,15,09,14.20
2015,04,09,15,10,14.20
2015,04,09,15,11,14.20
2015,04,09,15,12,14.10
2015,04,09,15,13,14.10
2015,04,09,15,14,14.00
2015,04,09,15,15,14.00
2015,04,09,15,16,14.00
2015,04,09,15,17,14.10
2015,04,09,15,18,14.10
2015,04,09,15,19,14.10
2015,04,09,15,20,14.00
2015,04,09,15,21,14.00
2015,04,09,15,22,14.00
2015,04,09,15,23,14.00
2015,04,09,15,24,14.10
2015,04,09,15,25,14.00
2015,04,09,15,26,14.10
2015,04,09,15,27,14.10
2015,04,09,15,28,14.20
2015,04,09,15,29,14.20
2015,04,09,15,30,14.30
2015,04,09,15,31,14.30
2015,04,09,15,32,14.30
2015,04,09,15,33,14.30
2015,04,09,15,34,14.30
2015,04,09,15,35,14.30
2015,04,09,15,36,14.30
2015,04,09,15,37,14.40
2015,04,09,15,38,14.50
2015,04,09,15,39,14.60
2015,04,09,15,40,14.60
2015,04,09,15,41,14.60
2015,04,09,15,42,14.60
2015,04,09,15,43,14.60
2015,04,09,15,44,14.50
2015,04,09,15,45,14.40
2015,04,09,15,46,14.40
2015,04,09,15,47,14.50
2015,04,09,15,48,14.60
2015,04,09,15,49,14.60
2015,04,09,15,50,14.70
2015,04,09,15,51,14.70
2015,04,09,15,52,14.70
2015,04,09,15,53,14.70
2015,04,09,15,54,14.70
2015,04,09,15,55,14.80
2015,04,09,15,56,14.80
2015,04,09,15,57,14.70
2015,04,09,15,58,14.70
2015,04,09,15,59,14.70
2015,04,09,16,00,14.70
2015,04,09,16,01,14.60
2015,04,09,16,02,14.60
2015,04,09,16,03,14.60
2015,04,09,16,04,14.60
2015,04,09,16,05,14.60
2015,04,09,16,06,14.60
2015,04,09,16,07,14.60
2015,04,09,16,08,14.60
2015,04,09,16,09,14.70
2015,04,09,16,10,14.70
2015,04,09,16,11,14.90
2015,04,09,16,12,15.00
2015,04,09,16,13,15.00
2015,04,09,16,14,15.00
2015,04,09,16,15,15.00
2015,04,09,16,16,15.10
2015,04,09,16,17,15.10
2015,04,09,16,18,15.10
2015,04,09,16,19,15.20
2015,04,09,16,20,15.20
2015,04,09,16,21,15.30
2015,04,09,16,22,15.30
2015,04,09,16,23,15.30
2015,04,09,16,24,15.10
2015,04,09,16,25,15.00
2015,04,09,16,26,15.00
2015,04,09,16,27,15.00
2015,04,09,16,28,15.00
2015,04,09,16,29,15.00
2015,04,09,16,30,15.00
2015,04,09,16,31,15.00
2015,04,09,16,32,15.00
2015,04,09,16,33,15.00
2015,04,09,16,34,15.00
2015,04,09,16,35,15.00
2015,04,09,16,36,15.00
2015,04,09,16,37,15.00
2015,04,09,16,38,15.00
2015,04,09,16,39,15.10
2015,04,09,16,40,15.20
2015,04,09,16,41,15.20
2015,04,09,16,42,15.20
2015,04,09,16,43,15.10
2015,04,09,16,44,15.10
2015,04,09,16,45,15.10
2015,04,09,16,46,15.00
2015,04,09,16,47,15.10
2015,04,09,16,48,15.10
2015,04,09,16,49,15.10
2015,04,09,16,50,15.10
2015,04,09,16,51,15.00
2015,04,09,16,52,15.00
2015,04,09,16,53,15.00
2015,04,09,16,54,15.00
2015,04,09,16,55,15.00
2015,04,09,16,56,15.10
2015,04,09,16,57,15.20
2015,04,09,16,58,15.20
2015,04,09,16,59,15.10
2015,04,09,17,00,15.10
2015,04,09,17,01,15.00
2015,04,09,17,02,15.00
2015,04,09,17,03,15.00
2015,04,09,17,04,14.80
2015,04,09,17,05,14.70
2015,04,09,17,06,14.70
2015,04,09,17,07,14.60
2015,04,09,17,08,14.50
2015,04,09,17,09,14.40
2015,04,09,17,10,14.40
2015,04,09,17,11,14.50
2015,04,09,17,12,14.50
2015,04,09,17,13,14.60
2015,04,09,17,14,14.70
2015,04,09,17,15,14.90
2015,04,09,17,16,15.00
2015,04,09,17,17,15.00
2015,04,09,17,18,15.00
2015,04,09,17,19,15.00
2015,04,09,17,20,15.00
2015,04,09,17,21,15.00
2015,04,09,17,22,15.00
2015,04,09,17,23,15.00
2015,04,09,17,24,15.00
2015,04,09,17,25,14.80
2015,04,09,17,26,14.70
2015,04,09,17,27,14.50
2015,04,09,17,28,14.40
2015,04,09,17,29,14.20
2015,04,09,17,30,14.10
2015,04,09,17,31,14.00
2015,04,09,17,32,13.90
2015,04,09,17,33,13.80
2015,04,09,17,34,13.80
2015,04,09,17,35,13.70
2015,04,09,17,36,13.60
2015,04,09,17,37,13.50
2015,04,09,17,38,13.40
2015,04,09,17,39,13.30
2015,04,09,17,40,13.30
2015,04,09,17,41,13.20
2015,04,09,17,42,13.10